Weather History for Randolph AFB, TX

Change the Weather History Date:

Monday, September 23, 2013

  Actual Average Record
Temperature  
Mean Temperature 72 °F -  
Max Temperature 88 °F 84 °F 98 °F (2000)
Min Temperature 55 °F 64 °F 48 °F (1999)
Cooling Degree Days 6    
Growing Degree Days 22 (Base 50)    
Moisture  
Dew Point 51 °F    
Average Humidity 54    
Maximum Humidity 82    
Minimum Humidity 23    
Precipitation  
Precipitation 0.00 in - - ()
Sea Level Pressure  
Sea Level Pressure 29.80 in    
Wind  
Wind Speed 5 mph (North)    
Max Wind Speed 6 mph    
Max Gust Speed -    
Visibility 10 miles    
Events      
Averages and records for this station are not official NWS values.
T = Trace of Precipitation, MM = Missing Value Source: NWS Daily Summary

Daily Weather History Graph

Daily Weather History Graph

Search for Another Location

Airport:

Trip Planner

Search our weather history database for the weather conditions in past years. The results will help you decide how hot, cold, wet, or windy it might be!

Date:

Astronomy

Sep. 23, 2013 Rise Set
Actual Time 7:22 AM CDT 7:28 PM CDT
Civil Twilight 6:58 AM CDT 7:51 PM CDT
Nautical Twilight 6:30 AM CDT 8:19 PM CDT
Astronomical Twilight 6:02 AM CDT 8:47 PM CDT
Moon 10:22 PM CDT (9/23) 11:22 AM CDT (9/23)
Length of Visible Light 12h 53m
Length of Day
12h 05m
Waning Gibbous, 81% of the Moon is Illuminated
Sep 23
Waning Gibbous
Sep 26
Last Quarter
Oct 4
New
Oct 11
First Quarter
Oct 18
Full

Hourly Weather History & Observations

Time (CDT) Temp. Heat Index Dew Point Humidity Pressure Visibility Wind Dir Wind Speed Gust Speed Precip Events Conditions
12:58 AM 62.8 °F - 51.6 °F 67% 29.81 in 10.0 mi NNW 5.8 mph - N/A   Clear
1:58 AM 58.1 °F - 51.3 °F 78% 29.81 in 10.0 mi NNW 5.8 mph - N/A   Clear
2:58 AM 57.2 °F - 50.9 °F 79% 29.81 in 10.0 mi NNW 5.8 mph - N/A   Clear
3:58 AM 58.3 °F - 50.5 °F 75% 29.79 in 10.0 mi NNW 5.8 mph - N/A   Clear
4:58 AM 56.8 °F - 50.5 °F 79% 29.79 in 10.0 mi NNW 5.8 mph - N/A   Clear
5:58 AM 55.4 °F - 50.0 °F 82% 29.80 in 10.0 mi NNW 4.6 mph - N/A   Clear
6:58 AM 55.6 °F - 50.2 °F 82% 29.81 in 10.0 mi NNW 5.8 mph - N/A   Clear
7:58 AM 56.7 °F - 50.7 °F 80% 29.83 in 10.0 mi NNW 5.8 mph - N/A   Clear
8:58 AM 63.7 °F - 53.4 °F 69% 29.84 in 10.0 mi NNW 5.8 mph - N/A   Clear
9:58 AM 72.1 °F - 56.5 °F 58% 29.84 in 10.0 mi NNW 2.3 mph - N/A   Clear
10:58 AM 77.4 °F - 55.0 °F 46% 29.84 in 10.0 mi Calm Calm - N/A   Clear
11:58 AM 80.2 °F 80.2 °F 54.5 °F 41% 29.83 in 10.0 mi Variable 2.3 mph - N/A   Clear
12:58 PM 82.9 °F - 51.3 °F 33% 29.81 in 10.0 mi WSW 5.8 mph - N/A   Clear
1:58 PM 85.8 °F - 45.3 °F 24% 29.79 in 10.0 mi NNE 4.6 mph - N/A   Clear
2:58 PM 87.1 °F - 46.4 °F 24% 29.78 in 10.0 mi Variable 3.5 mph - N/A   Clear
3:58 PM 87.3 °F - 44.6 °F 23% 29.75 in 10.0 mi Variable 4.6 mph - N/A   Clear
4:58 PM 88.3 °F - 46.8 °F 24% 29.75 in 10.0 mi East 2.3 mph - N/A   Clear
5:58 PM 87.6 °F - 46.2 °F 24% 29.75 in 10.0 mi SE 2.3 mph - N/A   Clear
6:58 PM 82.2 °F - 51.1 °F 34% 29.77 in 10.0 mi SE 5.8 mph - N/A   Clear
7:58 PM 76.3 °F - 49.6 °F 39% 29.77 in 10.0 mi SE 4.6 mph - N/A   Clear
8:58 PM 74.5 °F - 50.4 °F 43% 29.78 in 10.0 mi ESE 2.3 mph - N/A   Clear
9:23 PM 71.6 °F - 51.8 °F 50% 29.82 in 9.0 mi SE 2.3 mph - N/A   Clear
9:33 PM 73.4 °F - 50.0 °F 44% 29.82 in 10.0 mi SSE 4.6 mph - N/A   Clear
9:58 PM 72.3 °F - 52.9 °F 50% 29.80 in 10.0 mi SSE 2.3 mph - N/A   Clear
10:58 PM 65.7 °F - 55.8 °F 70% 29.83 in 10.0 mi NNW 5.8 mph - N/A   Clear
11:58 PM 64.9 °F - 56.3 °F 74% 29.83 in 10.0 mi North 3.5 mph - N/A   Clear